Regional Weather Roundup
Issued by NWS Green Bay, WI

Home | Current Version | Previous Version | Graphics & Text | Print | Product List | Glossary Off
Versions: 1 2 3 4 5 6 7 8 9 10 11 12 13 14 15 16 17 18 19 20 21 22 23 24 25 26 27 28 29 30 31 32 33 34 35 36 37 38 39 40 41 42 43 44 45 46 47 48 49 50

000
ASUS43 KGRB 101611
RWRGRB

NORTH-CENTRAL AND NORTHEAST WISCONSIN REGIONAL WEATHER ROUNDUP
NATIONAL WEATHER SERVICE GREEN BAY WI
1000 AM CST WED FEB 10 2016

WIZ005-009-010>012-018-019-101700-
NORTH CENTRAL WISCONSIN

CITY           SKY/WX    TMP DP  RH WIND       PRES   REMARKS
IRONWOOD       CLOUDY     7   1  78 N8        30.01R WCI  -6
MANITOWISH WTR CLOUDY     4  -4  69 NE9       29.98R WCI -10
ARBOR VITAE    CLOUDY     5  -4  66 N12G24    29.97R HAZE    WCI -11
EAGLE RIVER    CLOUDY     4  -7  61 N13       29.95S WCI -13
LAND O LAKES   CLOUDY     4  -4  69 N12G18    29.96S WCI -12
RHINELANDER    CLOUDY     4  -7  60 N9G17     29.96S WCI -10
PHILLIPS       CLOUDY     4  -4  69 N8        30.00R WCI  -9
ANTIGO         PTSUNNY    4  -6  63 N15       29.96R WCI -14
TOMAHAWK       CLOUDY     5  -3  69 NW8       29.99R WCI  -9
MERRILL        CLOUDY     6  -4  62 N10G20    30.00S WCI  -8
$$

WIZ013-073-101700-
NORTHEAST WISCONSIN

CITY           SKY/WX    TMP DP  RH WIND       PRES   REMARKS
IRON MOUNTAIN  SUNNY      6  -7  54 NW20G31   29.96S WCI -14
MARINETTE      SUNNY      9  -6  52 NW18G25   29.99S WCI -10
OCONTO         MOSUNNY   10  -5  52 N14G21    30.02S WCI  -7
$$

WIZ017-030-035>037-045-101700-
CENTRAL WISCONSIN

CITY           SKY/WX    TMP DP  RH WIND       PRES   REMARKS
MEDFORD        CLOUDY     3  -4  72 N8        30.00R WCI -11
WAUSAU         CLOUDY     8  -3  61 N10G17    29.99R WCI  -6
MOSINEE        CLOUDY     7  -2  66 N12       30.01R WCI  -9
MARSHFIELD     SUNNY      4  -6  63 NW13      30.01R WCI -13
WISC RAPIDS    MOSUNNY    6  -5  60 N12       30.05R WCI  -9
STEVENS POINT  CLOUDY     6  -3  67 N8        30.02R WCI  -7
WAUPACA        CLOUDY    13  -3  50 N7        30.03R WCI   2
SHAWANO        CLOUDY    10  -5  50 N14       30.03R WCI  -5
CLINTONVILLE   PTSUNNY   12  -6  44 N10G16    30.02S WCI  -1
WAUTOMA        CLOUDY     9  -2  61 NW7       30.04R WCI  -2
$$

WIZ038-039-048-051-101700-
FOX VALLEY

CITY           SKY/WX    TMP DP  RH WIND       PRES   REMARKS
NWS GREEN BAY  SUNNY      9  -4  55 NW17      30.01S WCI  -9
APPLETON       PTSUNNY    9  -6  52 NW12G18   29.99S WCI  -6
OSHKOSH        MOSUNNY    9  -4  55 N20       30.01S WCI -10
FOND DU LAC    MOSUNNY   10  -3  55 N14G22    30.02R WCI  -6
$$

WIZ022-050-052-101700-
EAST CENTRAL WISCONSIN

CITY           SKY/WX    TMP DP  RH WIND       PRES   REMARKS
EPHRAIM        FAIR      10  -4  53 NW14G24   29.96R WCI  -6
STURGEON BAY   SUNNY      9  -6  52 NW21G26   30.00R WCI -11
MANITOWOC      SUNNY     10  -2  58 N22G28    30.01R WCI -10
SHEBOYGAN      SUNNY     10  -3  55 NW15      30.00R WCI  -7
$$

LMZ563-521-522-541>543-101700-
LAKESHORE

STATION/POSITION TIME  TEMP    WIND        PRES    VSBY  WAVE
                       AIR SEA DIR/SP/G                  HT/PER
                 (UTC) (F)     (DEG/KT/KT) (MB)    (MI)  (FT/S)
SHEBOYGAN LKSHOR 1600   10     330/ 16/ 19 1017.8R
KEWAUNEE LKSHORE 1500    8     320/ 12/ 19 1014.8R
ALGOMA MARINA    1511          340/ 14/ 21   N/A
CHAMBERS ISLAND  1500   10     300/ 18/ 23 1014.9R
MENOMINEE LKSHOR 1500    8     310/ 18     1014.5R
$$



USA.gov is the U.S. government's official web portal to all federal, state and local government web resources and services.